Location: Newark
(45.2633°N, 19.8417°E)
Time: 07:30:57
(UTC+00:00)

Envisat - Visible Passes

Search period start: 05 April 2020 00:00
Search period end: 15 April 2020 00:00
Orbit: 764 x 766 km, 98.1° (Epoch: 04 April)

Date Brightness Start Highest point End Pass type
(mag) Time Alt. Az. Time Alt. Az. Time Alt. Az.
06 Apr 6.5 17:59:07 10° WSW 18:00:41 11° W 18:02:15 10° WNW visible
09 Apr 6.1 17:46:28 10° WSW 17:49:13 15° W 17:51:58 10° NW visible
14 Apr 6.6 18:02:59 10° W 18:03:35 10° W 18:04:11 10° W visible
